When you browse on this site, cookies collect data to enhance your experience and personalize the content and advertising you see.
Visit our Privacy Policy to learn more. By continuing to use the site, you agree to this use of cookies and data.
  • In Czech Republic
  • List of Countries
  • For 7 days
  • Water Temperature
  • Weather Map
  • Weather Widgets
  • user-avatar
    Login

    Hourly Weather Mihalovka

    Today, 30 May, Saturday

    Time Temperature Precipitation Wind Pressure Humidity
    00:00 +11°C° 0 mm 6 mps 745 mmHg 87%
    01:00 +11°C° 0 mm 6 mps 745 mmHg 87%
    02:00 +11°C° 0 mm 6 mps 744 mmHg 88%
    03:00 +11°C° 0.7 mm 6 mps 744 mmHg 91%
    04:00 +11°C° 0.7 mm 6 mps 743 mmHg 93%
    05:00 +11°C° 0.7 mm 6 mps 743 mmHg 96%
    06:00 +11°C° 2.1 mm 6 mps 743 mmHg 96%
    07:00 +13°C° 2.1 mm 6 mps 743 mmHg 96%
    08:00 +13°C° 2.1 mm 6 mps 742 mmHg 96%
    09:00 +12°C° 2 mm 7 mps 742 mmHg 96%
    10:00 +12°C° 2 mm 7 mps 742 mmHg 96%
    11:00 +12°C° 2 mm 7 mps 741 mmHg 96%
    12:00 +14°C° 0.7 mm 7 mps 741 mmHg 94%
    13:00 +15°C° 0.7 mm 8 mps 740 mmHg 91%
    14:00 +15°C° 0.7 mm 8 mps 740 mmHg 89%
    15:00 +15°C° 0.4 mm 8 mps 739 mmHg 90%
    16:00 +13°C° 0.4 mm 8 mps 738 mmHg 90%
    17:00 +13°C° 0.4 mm 8 mps 737 mmHg 91%
    18:00 +13°C° 2.6 mm 9 mps 737 mmHg 92%
    19:00 +13°C° 2.6 mm 9 mps 737 mmHg 93%
    20:00 +13°C° 2.6 mm 10 mps 737 mmHg 95%
    21:00 +13°C° 1.5 mm 8 mps 737 mmHg 95%
    22:00 +14°C° 1.5 mm 7 mps 738 mmHg 95%
    23:00 +14°C° 1.5 mm 6 mps 738 mmHg 96%

    Tomorrow, 31 May, Sunday

    Time Temperature Precipitation Wind Pressure Humidity
    00:00 +14°C° 0.1 mm 5 mps 738 mmHg 96%
    01:00 +14°C° 0.1 mm 5 mps 739 mmHg 96%
    02:00 +14°C° 0.1 mm 4 mps 739 mmHg 97%
    03:00 +13°C° 0.1 mm 4 mps 740 mmHg 97%
    04:00 +13°C° 0.1 mm 3 mps 740 mmHg 97%
    05:00 +13°C° 0.1 mm 3 mps 740 mmHg 97%
    06:00 +13°C° 0.2 mm 4 mps 741 mmHg 96%
    07:00 +14°C° 0.2 mm 4 mps 741 mmHg 96%
    08:00 +14°C° 0.2 mm 5 mps 742 mmHg 95%
    09:00 +13°C° 0.4 mm 5 mps 742 mmHg 94%
    10:00 +13°C° 0.4 mm 6 mps 742 mmHg 94%
    11:00 +11°C° 0.4 mm 6 mps 743 mmHg 93%
    12:00 +11°C° 0.2 mm 7 mps 743 mmHg 92%
    13:00 +11°C° 0.2 mm 8 mps 743 mmHg 90%
    14:00 +11°C° 0.2 mm 8 mps 744 mmHg 89%
    15:00 +10°C° 0.3 mm 8 mps 744 mmHg 89%
    16:00 +10°C° 0.3 mm 7 mps 745 mmHg 88%
    17:00 +10°C° 0.3 mm 7 mps 745 mmHg 88%
    18:00 +10°C° 0.1 mm 6 mps 745 mmHg 88%
    19:00 +10°C° 0.1 mm 5 mps 746 mmHg 87%
    20:00 +11°C° 0.1 mm 4 mps 746 mmHg 87%
    21:00 +10°C° 0 mm 4 mps 747 mmHg 87%
    22:00 +10°C° 0 mm 4 mps 747 mmHg 87%
    23:00 +8°C° 0 mm 4 mps 747 mmHg 87%

    Day after tomorrow, 1 June, Monday

    Time Temperature Precipitation Wind Pressure Humidity
    00:00 +7°C° 0 mm 4 mps 747 mmHg 87%
    01:00 +7°C° 0 mm 4 mps 748 mmHg 86%
    02:00 +6°C° 0 mm 4 mps 748 mmHg 86%
    03:00 +5°C° 0 mm 4 mps 748 mmHg 85%
    04:00 +5°C° 0 mm 4 mps 748 mmHg 84%
    05:00 +5°C° 0 mm 5 mps 748 mmHg 83%
    06:00 +6°C° 0 mm 5 mps 749 mmHg 77%
    07:00 +8°C° 0 mm 5 mps 749 mmHg 71%
    08:00 +9°C° 0 mm 6 mps 749 mmHg 65%
    09:00 +9°C° 0 mm 6 mps 749 mmHg 64%
    10:00 +10°C° 0 mm 6 mps 749 mmHg 63%
    11:00 +10°C° 0 mm 6 mps 749 mmHg 61%
    12:00 +10°C° 0.1 mm 6 mps 749 mmHg 62%
    13:00 +10°C° 0.1 mm 6 mps 749 mmHg 63%
    14:00 +10°C° 0.1 mm 6 mps 749 mmHg 64%
    15:00 +10°C° 0.1 mm 5 mps 749 mmHg 65%
    16:00 +10°C° 0.1 mm 5 mps 749 mmHg 66%
    17:00 +10°C° 0.1 mm 5 mps 749 mmHg 68%
    18:00 +10°C° 0.1 mm 4 mps 749 mmHg 73%
    19:00 +8°C° 0.1 mm 4 mps 749 mmHg 78%
    20:00 +8°C° 0.1 mm 3 mps 749 mmHg 84%
    21:00 +7°C° 0 mm 3 mps 749 mmHg 86%
    22:00 +7°C° 0 mm 3 mps 749 mmHg 87%
    23:00 +7°C° 0 mm 3 mps 749 mmHg 89%

    2 June, Tuesday

    Time Temperature Precipitation Wind Pressure Humidity
    00:00 +7°C° 0 mm 3 mps 749 mmHg 90%
    01:00 +7°C° 0 mm 3 mps 749 mmHg 90%
    02:00 +7°C° 0 mm 3 mps 748 mmHg 91%
    03:00 +7°C° 0.1 mm 3 mps 748 mmHg 91%
    04:00 +6°C° 0.1 mm 4 mps 748 mmHg 91%
    05:00 +6°C° 0.1 mm 4 mps 748 mmHg 91%
    06:00 +7°C° 0 mm 4 mps 748 mmHg 88%
    07:00 +7°C° 0 mm 5 mps 748 mmHg 85%
    08:00 +8°C° 0 mm 5 mps 748 mmHg 82%
    09:00 +9°C° 0.2 mm 5 mps 747 mmHg 80%
    10:00 +10°C° 0.2 mm 5 mps 747 mmHg 77%
    11:00 +12°C° 0.2 mm 5 mps 747 mmHg 75%
    12:00 +13°C° 0.4 mm 6 mps 747 mmHg 73%
    13:00 +13°C° 0.4 mm 6 mps 746 mmHg 72%
    14:00 +14°C° 0.4 mm 7 mps 746 mmHg 71%
    15:00 +12°C° 0.4 mm 7 mps 745 mmHg 74%
    16:00 +13°C° 0.4 mm 6 mps 745 mmHg 78%
    17:00 +11°C° 0.4 mm 6 mps 745 mmHg 82%
    18:00 +11°C° 0.2 mm 6 mps 745 mmHg 85%
    19:00 +10°C° 0.2 mm 5 mps 744 mmHg 87%
    20:00 +9°C° 0.2 mm 5 mps 744 mmHg 90%
    21:00 +9°C° 0.2 mm 5 mps 744 mmHg 89%
    22:00 +9°C° 0.2 mm 5 mps 743 mmHg 89%
    23:00 +9°C° 0.2 mm 6 mps 743 mmHg 89%

    3 June, Wednesday

    Time Temperature Precipitation Wind Pressure Humidity
    00:00 +9°C° 0.4 mm 6 mps 743 mmHg 91%
    01:00 +9°C° 0.4 mm 6 mps 742 mmHg 93%
    02:00 +9°C° 0.4 mm 6 mps 742 mmHg 95%
    03:00 +9°C° 0.4 mm 6 mps 741 mmHg 95%
    04:00 +9°C° 0.4 mm 6 mps 741 mmHg 96%
    05:00 +9°C° 0.4 mm 6 mps 741 mmHg 96%
    06:00 +9°C° 0.8 mm 5 mps 741 mmHg 96%
    07:00 +10°C° 0.8 mm 5 mps 740 mmHg 97%
    08:00 +10°C° 0.8 mm 5 mps 740 mmHg 97%
    09:00 +12°C° 1.3 mm 5 mps 741 mmHg 96%
    10:00 +12°C° 1.3 mm 5 mps 741 mmHg 94%
    11:00 +13°C° 1.3 mm 4 mps 741 mmHg 93%
    12:00 +14°C° 0.5 mm 4 mps 741 mmHg 88%
    13:00 +15°C° 0.5 mm 4 mps 741 mmHg 83%
    14:00 +16°C° 0.5 mm 5 mps 741 mmHg 78%
    15:00 +17°C° 0.1 mm 4 mps 741 mmHg 75%
    16:00 +17°C° 0.1 mm 4 mps 741 mmHg 71%
    17:00 +18°C° 0.1 mm 4 mps 741 mmHg 68%
    18:00 +16°C° 0 mm 3 mps 741 mmHg 74%
    19:00 +14°C° 0 mm 3 mps 741 mmHg 80%
    20:00 +13°C° 0 mm 2 mps 741 mmHg 86%
    21:00 +12°C° 0 mm 2 mps 742 mmHg 89%
    22:00 +10°C° 0 mm 2 mps 742 mmHg 91%
    23:00 +9°C° 0 mm 2 mps 742 mmHg 93%

    4 June, Thursday

    Time Temperature Precipitation Wind Pressure Humidity
    00:00 +9°C° 0 mm 2 mps 742 mmHg 93%
    01:00 +9°C° 0 mm 2 mps 742 mmHg 93%
    02:00 +9°C° 0 mm 2 mps 742 mmHg 93%
    03:00 +9°C° 0 mm 2 mps 742 mmHg 93%
    04:00 +9°C° 0 mm 2 mps 742 mmHg 93%
    05:00 +10°C° 0 mm 2 mps 742 mmHg 93%
    06:00 +10°C° 0.1 mm 2 mps 742 mmHg 90%
    07:00 +11°C° 0.1 mm 3 mps 742 mmHg 87%
    08:00 +12°C° 0.1 mm 3 mps 742 mmHg 84%
    09:00 +13°C° 0.5 mm 4 mps 742 mmHg 80%
    10:00 +14°C° 0.5 mm 4 mps 742 mmHg 77%
    11:00 +15°C° 0.5 mm 4 mps 742 mmHg 73%
    12:00 +17°C° 0.7 mm 4 mps 741 mmHg 73%
    13:00 +17°C° 0.7 mm 4 mps 741 mmHg 73%
    14:00 +17°C° 0.7 mm 3 mps 741 mmHg 74%
    15:00 +17°C° 0.7 mm 3 mps 741 mmHg 76%
    16:00 +17°C° 0.7 mm 3 mps 741 mmHg 78%
    17:00 +16°C° 0.7 mm 3 mps 740 mmHg 80%
    18:00 +14°C° 0.5 mm 3 mps 740 mmHg 84%
    19:00 +14°C° 0.5 mm 2 mps 740 mmHg 87%
    20:00 +13°C° 0.5 mm 1 mps 740 mmHg 91%
    21:00 +12°C° 0 mm 1 mps 740 mmHg 92%
    22:00 +12°C° 0 mm 1 mps 740 mmHg 93%
    23:00 +11°C° 0 mm 1 mps 741 mmHg 94%
    Show more